Memphis, TN

8:25 AM CST on February 10, 2016 (GMT -0600)
Memphis International

Weather History for KMEM - June, 2013

Change the Weather History Date:

Tuesday, June 4, 2013

  Actual Average Record
Temperature  
Mean Temperature 76 °F 77 °F  
Max Temperature 87 °F 86 °F 99 °F (2011)
Min Temperature 64 °F 68 °F 52 °F (1945)
Degree Days  
Heating Degree Days 0 0  
Month to date heating degree days 0 0  
Since 1 June heating degree days 0 0  
Since 1 July heating degree days 2933 2964  
Cooling Degree Days 11 12  
Month to date cooling degree days 37 47  
Year to date cooling degree days 322 368  
Since 1 June cooling degree days 37 47  
Growing Degree Days 26 (Base 50)    
Moisture  
Dew Point 60 °F    
Average Humidity 59    
Maximum Humidity 78    
Minimum Humidity 40    
Precipitation  
Precipitation 0.00 in 0.14 in 1.65 in (1986)
Month to date precipitation 0.56 0.57  
Year to date precipitation 35.14 24.85  
Snow  
Snow 0.00 in 0.00 in - ()
Month to date snowfall 0.0 0.0  
Since 1 June snowfall 0.0 0.0  
Since 1 July snowfall 0.9 3.8  
Snow Depth 0.00 in    
Sea Level Pressure  
Sea Level Pressure 29.97 in    
Wind  
Wind Speed 6 mph (ENE)    
Max Wind Speed 13 mph    
Max Gust Speed 17 mph    
Visibility 10 miles    
Events      
T = Trace of Precipitation, MM = Missing Value Source: NWS Daily Summary

Daily Weather History Graph

Daily Weather History Graph

Search for Another Location

Airport or City:

Trip Planner

Search our weather history database for the weather conditions in past years. The results will help you decide how hot, cold, wet, or windy it might be!

Date:

Astronomy

Jun. 04, 2013 Rise Set
Actual Time 5:46 AM CDT 8:10 PM CDT
Civil Twilight 5:16 AM CDT 8:40 PM CDT
Nautical Twilight 4:40 AM CDT 9:16 PM CDT
Astronomical Twilight 4:01 AM CDT 9:56 PM CDT
Moon 3:08 AM CDT (6/4) 4:46 PM CDT (6/4)
Length of Visible Light 15h 23m
Length of Day
14h 24m
Waning Crescent, 14% of the Moon is Illuminated
Jun 4
Waning Crescent
Jun 8
New
Jun 16
First Quarter
Jun 23
Full
Jun 29
Last Quarter

Hourly Weather History & Observations

Time (CDT) Temp. Heat Index Dew Point Humidity Pressure Visibility Wind Dir Wind Speed Gust Speed Precip Events Conditions
12:54 AM 69.1 °F - 59.0 °F 70% 29.99 in 10.0 mi ENE 6.9 mph - N/A   Partly Cloudy
1:54 AM 68.0 °F - 59.0 °F 73% 29.99 in 10.0 mi ENE 4.6 mph - N/A   Scattered Clouds
2:54 AM 66.9 °F - 59.0 °F 76% 29.98 in 10.0 mi ENE 5.8 mph - N/A   Scattered Clouds
3:54 AM 66.9 °F - 59.0 °F 76% 29.98 in 10.0 mi ENE 9.2 mph - N/A   Scattered Clouds
4:54 AM 66.9 °F - 57.9 °F 73% 29.98 in 10.0 mi ENE 4.6 mph - N/A   Mostly Cloudy
5:54 AM 64.9 °F - 57.9 °F 78% 29.98 in 9.0 mi East 6.9 mph - N/A   Mostly Cloudy
6:54 AM 66.0 °F - 57.9 °F 75% 29.99 in 10.0 mi East 6.9 mph - N/A   Mostly Cloudy
7:54 AM 68.0 °F - 57.9 °F 70% 30.00 in 10.0 mi East 8.1 mph - N/A   Overcast
8:54 AM 72.0 °F - 59.0 °F 64% 30.01 in 10.0 mi East 8.1 mph - N/A   Mostly Cloudy
9:54 AM 77.0 °F - 60.1 °F 56% 30.01 in 10.0 mi ESE 8.1 mph - N/A   Scattered Clouds
10:54 AM 80.1 °F 81.1 °F 61.0 °F 52% 30.00 in 10.0 mi SSE 8.1 mph - N/A   Scattered Clouds
11:54 AM 82.9 °F 83.2 °F 60.1 °F 46% 30.00 in 10.0 mi Calm Calm - N/A   Scattered Clouds
12:54 PM 82.0 °F 82.0 °F 57.9 °F 44% 30.00 in 10.0 mi Calm Calm - N/A   Mostly Cloudy
1:54 PM 82.9 °F 82.6 °F 57.9 °F 42% 29.98 in 10.0 mi Calm Calm - N/A   Mostly Cloudy
2:54 PM 84.0 °F 83.5 °F 57.9 °F 41% 29.95 in 10.0 mi Calm Calm - N/A   Mostly Cloudy
3:54 PM 86.0 °F 85.4 °F 59.0 °F 40% 29.93 in 10.0 mi NE 4.6 mph - N/A   Mostly Cloudy
4:54 PM 84.9 °F 84.4 °F 59.0 °F 41% 29.93 in 10.0 mi Calm Calm - N/A   Mostly Cloudy
5:54 PM 84.0 °F 83.5 °F 57.9 °F 41% 29.91 in 10.0 mi Calm Calm - N/A   Mostly Cloudy
6:54 PM 82.9 °F 83.3 °F 61.0 °F 47% 29.91 in 10.0 mi NE 8.1 mph - N/A   Mostly Cloudy
7:54 PM 82.0 °F 83.0 °F 62.1 °F 51% 29.92 in 10.0 mi ENE 9.2 mph - N/A   Mostly Cloudy
8:54 PM 80.1 °F 81.2 °F 62.1 °F 54% 29.93 in 10.0 mi NE 6.9 mph - N/A   Scattered Clouds
9:54 PM 78.1 °F - 62.1 °F 58% 29.95 in 10.0 mi ENE 6.9 mph - N/A   Scattered Clouds
10:54 PM 77.0 °F - 62.1 °F 60% 29.96 in 10.0 mi East 6.9 mph - N/A   Partly Cloudy
11:54 PM 75.9 °F - 62.1 °F 62% 29.95 in 10.0 mi East 10.4 mph - N/A   Partly Cloudy